Regional Weather Roundup
Issued by NWS Wakefield, VA

Home | Current Version | Previous Version | Graphics & Text | Print | Product List | Glossary On
Versions: 1 2 3 4 5 6 7 8 9 10 11 12 13 14 15 16 17 18 19 20 21 22 23 24 25 26 27 28 29 30 31 32 33 34 35 36 37 38 39 40 41 42 43 44 45 46 47 48 49 50
000
ASUS41 KAKQ 212216
RWRAKQ

REGIONAL WEATHER ROUNDUP
NATIONAL WEATHER SERVICE WAKEFIELD VA
600 PM EDT FRI JUL 21 2017

Note: "fair" indicates few or no clouds below 12,000 feet with no
significant weather and/or obstructions to visibility. * = Denotes
station may not report precipitation (e.g., rain,snow,etc.),
thunder or fog.

VAZ042-051-052>054-056-212300-
NORTHERN VIRGINIA

CITY           SKY/WX    TMP DP  RH WIND       PRES   REMARKS
WASH NATIONAL  PTSUNNY   94  70  45 VRB6      29.88F HX 100
DULLES         CLOUDY    89  71  55 S3        29.87F HX  95
FORT BELVOIR   PTSUNNY   93  73  52 SE5       29.87F HX 102
QUANTICO       CLOUDY    93  76  57 SE7       29.87F HX 105
FREDERICKSBRG* MOSUNNY   93  74  55 S6        29.86F HX 103
STAFFORD*      MOSUNNY   92  73  54 E7        29.91F HX 100
WARRENTON      CLOUDY    88  67  49 CALM      29.89S
CULPEPER*      CLOUDY    86  71  60 W3        29.88F
MANASSAS*      CLOUDY    91  76  61 SE6       29.87F HX 103
LEESBURG*      CLOUDY    91  75  59 CALM      29.89F HX 102
WINCHESTER     CLOUDY    75  72  88 SW6       29.93S
FRONT ROYAL*   CLOUDY    77  70  78 SW5       29.93S
LURAY*         CLOUDY    75  72  88 CALM      29.96R
$$

VAZ048-049-060>072-079>083-212300-
CENTRAL AND SOUTH CENTRAL VIRGINIA

CITY           SKY/WX    TMP DP  RH WIND       PRES   REMARKS
RICHMOND       PTSUNNY   97  69  40 SW6       29.88F HX 103
CHESTERFIELD*  FAIR      97  70  41 VRB5      29.89F HX 103
PETERSBURG*    SUNNY     94  68  42 CALM      29.90F HX  98
HANOVER        SUNNY     96  64  34 SW6       29.89F HX  98
TAPPAHANNOCK*  SUNNY     98  46  17 S8        29.89F
QUINTON*       FAIR      95  73  48 S5        29.88F HX 104
CHARLOTTSVILLE PTSUNNY   81  73  76 SW5       29.90F
GORDONSVILLE*  CLOUDY    84  72  66 S5        29.88F
ORANGE*        CLOUDY    84  68  58 CALM      29.88F
LOUISA*        MOSUNNY   88  68  51 CALM      29.89F
BUMPASS*       FAIR      91  71  50 W10       29.88F HX  97
FARMVILLE*     MOSUNNY   91  61  36 NW5       29.91S
CREWE*         FAIR      96  55  25 W3        29.90F
FORT PICKETT*  FAIR     N/A N/A N/A SW9       29.92F
CHASE CITY*    FAIR      92  70  49 NW5       29.94F HX  98
CLARKSVILLE*   FAIR      91  72  52 W3        29.93F HX  98
SOUTH HILL*    CLOUDY    92  73  52 SW6       29.98F HX 100
LAWRENCEVILLE* FAIR      94  68  43 SW6       29.92S HX  98
EMPORIA*       CLOUDY    93  70  46 CALM      29.92S HX  99
$$

VAZ088>098-212300-
SOUTHEAST VIRGINIA

CITY           SKY/WX    TMP DP  RH WIND       PRES   REMARKS
NORFOLK        CLOUDY    91  77  63 SE5       29.91F HX 104
VIRGINIA BEACH LGT RAIN  83  75  77 SW5       29.91S
NORFOLK NAVAL  PTSUNNY   92  74  55 SE6       29.92F HX 101
WEST POINT*    CLOUDY    95  68  40 S6        29.90F HX  99
SALUDA*        FAIR      90  78  66 CALM      29.90F HX 104
NEWPORT NEWS   CLOUDY    93  75  55 S8        29.90F HX 104
LANGLEY AFB    MOSUNNY   90  78  66 SE8       29.91S HX 104
FORT EUSTIS    MOSUNNY   95  77  56 S5        29.88F HX 110
WILLIAMSBURG*  CLOUDY    97  77  52 CALM      29.90F HX 112
HR EXEC AP*    FAIR      91  77  62 CALM        N/A  HX 105
FRANKLIN*      NOT AVBL
US460-WAKEFLD  CLOUDY    93  76  57 S5        29.90F HX 105
$$

VAZ020-022-025-037-045-212300-
WEST CENTRAL AND SOUTHWEST VIRGINIA

CITY           SKY/WX    TMP DP  RH WIND       PRES   REMARKS
STAUNTON*      CLOUDY    80  70  70 S6        29.98F
WAYNESBORO*    MOCLDY    78  75  92 SW6       29.98F
HOT SPRINGS VA MOSUNNY   73  61  64 W14       30.14F
LYNCHBURG      CLOUDY    77  74  90 SW3       29.97F
DANVILLE       CLOUDY    83  72  69 NW20G30   30.00R THUNDER
SOUTH BOSTON*  FAIR      93  73  52 N5        29.94S HX 102
MARTINSVILLE   PTSUNNY   82  72  71 CALM      30.01F
ROANOKE        PTSUNNY   89  70  53 E6        30.00S
BLACKSBURG     MOSUNNY   88  67  50 CALM      30.08S
DUBLIN*        MOSUNNY   88  56  33 N7G16     30.07S
MARION*        CLOUDY    84  68  58 SW7       30.11F
HILLSVILLE*    CLOUDY    83  64  52 CALM      30.09S
RICHLANDS*     FAIR      87  66  50 W5        30.10F
WISE*          MOSUNNY   88  63  42 SW10      30.11F
ABINGDON*      SUNNY     89  71  55 SW8       30.07F
$$

MDZ021>025-VAZ099-100-212300-
SOUTHERN MARYLAND AND THE DELMARVA PENINSULA

CITY           SKY/WX    TMP DP  RH WIND       PRES   REMARKS
PATUXENT RIVER PTSUNNY   88  78  72 SE8       29.89F HX 101
BAY BRIDGE APT MOSUNNY   93  72  49 S6        29.88F HX 100
LEONARDTOWN    CLOUDY   N/A N/A N/A CALM      29.91S
DOVER          SUNNY     89  80  74 E7        29.87F HX 106
GEORGETOWN     MOSUNNY   88  76  67 SE5       29.90F HX  99
EASTON         MOSUNNY   93  70  46 SW7       29.93F HX  99
CAMBRIDGE      SUNNY     90  73  58 CALM      29.89S HX  98
SALISBURY      MOSUNNY   91  75  59 W9        29.90S HX 102
OCEAN CITY     MOSUNNY   83  75  77 VRB6      29.90F
WALLOPS ISLAND CLOUDY    91  74  57 SW6       29.90F HX 100
ACCOMACK*      MOSUNNY   94  69  44 S5        29.90F HX  99
$$

NCZ012>017-030>032-212300-
NORTH CENTRAL AND EASTERN NORTH CAROLINA

CITY           SKY/WX    TMP DP  RH WIND       PRES   REMARKS
ROANOKE RAPIDS FAIR      91  70  49 S6        29.92S HX  97
RALEIGH        PTSUNNY   95  69  42 CALM      29.95S HX 100
ELIZABETH CITY CLOUDY    90  77  65 S8        29.93S HX 103
AHOSKIE*         N/A     87  81  80 CALM      29.93S HX 104
EDENTON*       CLOUDY    90  76  62 CALM      29.94S HX 101
CURRITUCK*     CLOUDY    91  75  59 SW8       29.94R HX 101
KILL DEVIL HLS CLOUDY    88  77  68 CALM      29.93S HX 100
MANTEO         CLOUDY    88  78  70 SW16      29.95R HX 101
CAPE HATTERAS  SUNNY     84  76  76 SW13      29.97F
TARBORO*       NOT AVBL
GOLDSBORO      SUNNY     95  72  46 SW7       29.93R HX 103
WASHINGTON     MOSUNNY   92  74  55 S8        29.94R HX 102
GREENVILLE     MOSUNNY   95  73  49 SW9       29.94F HX 105
NEW BERN       SUNNY     90  76  63 S12       29.97R HX 101
WILMINGTON     SUNNY     89  73  59 S13       29.97S HX  97
$$

VAZ048-212300-
ELSEWHERE

CITY           SKY/WX    TMP DP  RH WIND       PRES   REMARKS
HARRISBURG PA  CLOUDY    88  73  61 VRB5      29.87F HX  95
BALTIMORE      PTSUNNY   90  72  55 S5        29.88F HX  97
ANNAPOLIS      MOSUNNY   88  73  61 S9        29.88F HX  95
ANDREWS AFB    MOSUNNY   93  69  44 W7        29.88F HX  98
PHILADELPHIA   PTSUNNY   92  68  45 W10       29.87F HX  96
HENDERSON NC   MOSUNNY   90  69  50 SW5       29.95S
GREENSBORO     CLOUDY    90  71  53 NW7       29.97F HX  96
ROCKY MOUNT    MOSUNNY   88  72  58 SW6       29.93F
$$

VAZ100-212300-
MARINE

STATION/POSITION TIME  TEMP    WIND        PRES    WAVE   SWELL
                       AIR SEA DIR/SP/G            HT/PER HT/PER
                 (UTC) (F)     (DEG/KT/KT) (MB)    (FT/S) (FT/S)
BRANDYWINE LGT   2148   80     180/ 12/ 12 1012.6F
CAPE MAY NJ      2148   83 77  180/  8/ 11 1011.9F
LEWES DE         2148   86 79  170/  6/  9 1012.1F
15NM E FENWICK I 2150   81 80  190/  6/  8 1013.1F   2/ 8   2/ 8
OCEAN-CITY-INLET 2148   81 71  160/  4/  7 1012.9F
WACHAPREAGUE VA  2148   86 87  170/  7/  9 1012.7F
THOMAS POINT MD  2200   88 85  180/  8/  9   N/A
GOOSES REEF MD   2200   89 86  150/ 10/ 10 1012.8    0
COVE POINT MD    2148   87     180/  6/  7 1012.9F
SOLOMONS ISLAND  2148   87 85   80/  6/  6   N/A
BISHOPS HEAD MD  2148   89     100/  3/  6 1012.5F
PINEY POINT MD   2148          180/  8/  9   N/A
POTOMAC MD       2200   88 87  170/ 10/ 10 1011.4    1
CAMBRIDGE MD     2148   93                 1013.1F
LEWISETTA VA     2148   89 87  120/  6/  7 1012.1F
RAPPAHANNOCK LGT 2148          170/  4/  5 1013.3F
STINGRAY PT      2150   88     170/  8/  8 1013.2F
YORK RVR RNG VA  2148   87     140/ 10/ 11 1013.1F
YORKTOWN VA      2148   87 84   80/  9/  9 1012.2F
JAMESTOWN VA     2200      88  150/  4/  6   N/A     0
DOMINION TERM VA 2148   89      90/  4/  5 1012.9F
KIPTOPEKE VA     2148      83                N/A
CHES BAY BRIDGE  2148   87 78  160/  5/  9 1012.9F
CAPE HENRY VA    2148   87     170/  8/ 10   N/A
WILLOUBY STN VA  2148   85     100/ 11/ 12 1012.8F
S CRANEY ISL VA  2148   89     100/  4/  7 1012.6F
CAPE HENRY BUOY  2200      80                N/A     2/ 7   2/13
1ST LANDING BUOY 2200   86 83              1012.7    1/ 4
64NM E OF VA BCH 2150   81 81  210/ 14/ 14 1014.0S   3/ 4   2/ 8
DUCK PIER NC     2148   90 64  220/  9/ 11 1013.2F
44100 DUCK FRF   2105      74                N/A     2/12
44056 DUCK FRF   2200      74                N/A     2/11   2/11
OREGON INLET NC  2136   85 87  190/ 16/ 18 1014.0F
HATTERAS NC      2148   83 81  210/ 10/ 14 1014.9S
DIAMOND SHLS NC  2150   83 85  230/ 16/ 19 1014.9S   4/ 4   2/ 7
CAPE LOOKOUT NC  2200   83     210/ 11/ 15 1015.0S
$$



USA.gov is the U.S. government's official web portal to all federal, state and local government web resources and services.